COSMOS 2251 DEB, 34070

Orbit data source: Space-Track

COSMOS 2251 DEB, 34070 is space debris in LEO originally from a launch on Wed, 16 Jun 1993 UTC launched from the Plesetsk Missile And Space Complex (PKMTR). The debris from Iridium 33, an American commercial communications satellite, has been tracked extensively since its accidental collision with the defunct Russian satellite Cosmos 2251 in 2009. This event, occurring at high speed in low Earth orbit (LEO), generated thousands of pieces of space debris, significantly increasing the risk of further collisions. The Iridium 33 debris cloud has impacted space traffic management and orbital debris mitigation strategies, making it a subject of ongoing study in space situational awareness.

Loading next visibility...
Identifier
34070, 1993-036KH
Orbit
LEO
Country
Flag of CISCIS
Related business
Manufacturer
Unknown
Mission
Spacecraft
Bus & Motor
Unknown
Mass
Unknown
Launch date (UTC)
1993-06-16 (32 years ago)
Launch vehicle
Unknown
Launch site
Plesetsk Missile And Space Complex (PKMTR)
Object type
Payload
Rocket body
Debris
Shape & HBR
Unknown shape, 0.1 m
Radar Cross Section
Small (<0.1 m²)

Expand to show TLE details & history
Last TLE update: 4 hours ago

TLE from 4 hours ago
0 COSMOS 2251 DEB
1 34070U 93036KH  25299.85995752  .00014426  00000-0  21337-2 0  9997
2 34070  74.0013 208.2107 0020335 323.3970 105.4528 14.75073936879195
Epoch: 2025-10-26T20:38Z
TLE epoch observation values (Epoch: 2025-10-26T20:38:20.329Z)
Latitude
63.98119°
Longitude
-101.09748°
Altitude
659.412 km
Speed
7.532 km/s
True Right ascension
16h 15m 49s
True Declination
63° 50' 36"
Sunlit
Object was in daylight at epoch
Visualization orbit readout
Latitude
Unknown
Longitude
Unknown
Altitude
Unknown
Speed
Unknown
Apparent Right ascension
Unknown
Apparent Declination
Unknown
Sunlit
N/A
Visualization observer readout
Local Sidereal Time
20:26:19
Azimuth
Unknown
Elevation
Unknown
Doppler factor
Unknown
Orbital elements
Apogee altitude
656.777 km
Perigee altitude
628.224 km
Semi-major axis
7,020.638 km
Eccentricity
0.00203
Inclination
74.0013°
RAAN
208.2107°
Arg. of periapsis
323.397°
True anomaly
105.67725°
Mean anomaly
105.4528°
Eccentric anomaly
105.56504°
Mean motion
3.68959 °/min
Orbital period
97.57 mins
BSTAR
0.0021337
Loading maneuver chart data...
Computing Atmospheric mass density...
Loading historical data...
Loading historical data...
Loading historical data...
Loading historical data...
Loading historical data...
Loading historical data...
Loading historical data...

Documentation

Showing up to 5 results
|